EN

Hourly Weather Laczki

Today, 6 August, Friday

Time Temperature Precipitation Wind Pressure Humidity
00:00 +16°C° 0.7 mm 3 mps 745 mmHg 90%
01:00 +16°C° 0.7 mm 3 mps 745 mmHg 92%
02:00 +14°C° 0.9 mm 3 mps 745 mmHg 93%
03:00 +14°C° 0.9 mm 4 mps 745 mmHg 94%
04:00 +14°C° 0.9 mm 4 mps 745 mmHg 94%
05:00 +14°C° 0.3 mm 4 mps 745 mmHg 92%
06:00 +14°C° 0.3 mm 4 mps 745 mmHg 90%
07:00 +14°C° 0.3 mm 5 mps 745 mmHg 88%
08:00 +14°C° 0.1 mm 5 mps 745 mmHg 84%
09:00 +14°C° 0.1 mm 5 mps 745 mmHg 81%
10:00 +14°C° 0.1 mm 4 mps 745 mmHg 77%
11:00 +15°C° 0 mm 5 mps 745 mmHg 72%
12:00 +16°C° 0 mm 5 mps 745 mmHg 66%
13:00 +17°C° 0 mm 5 mps 745 mmHg 61%
14:00 +17°C° 0 mm 5 mps 745 mmHg 61%
15:00 +17°C° 0 mm 5 mps 745 mmHg 60%
16:00 +17°C° 0 mm 5 mps 745 mmHg 60%
17:00 +16°C° 0 mm 5 mps 745 mmHg 64%
18:00 +15°C° 0 mm 4 mps 745 mmHg 67%
19:00 +14°C° 0 mm 3 mps 745 mmHg 70%
20:00 +14°C° 0 mm 3 mps 745 mmHg 72%
21:00 +14°C° 0 mm 2 mps 746 mmHg 73%
22:00 +14°C° 0 mm 2 mps 746 mmHg 75%
23:00 +13°C° 0 mm 2 mps 746 mmHg 75%

Tomorrow, 7 August, Saturday

Time Temperature Precipitation Wind Pressure Humidity
00:00 +13°C° 0 mm 2 mps 745 mmHg 74%
01:00 +13°C° 0 mm 2 mps 745 mmHg 74%
02:00 +13°C° 0 mm 2 mps 745 mmHg 74%
03:00 +13°C° 0 mm 2 mps 746 mmHg 73%
04:00 +13°C° 0 mm 2 mps 746 mmHg 73%
05:00 +14°C° 0 mm 2 mps 746 mmHg 69%
06:00 +16°C° 0 mm 2 mps 746 mmHg 65%
07:00 +17°C° 0 mm 2 mps 746 mmHg 61%
08:00 +19°C° 0 mm 2 mps 746 mmHg 59%
09:00 +21°C° 0 mm 3 mps 746 mmHg 57%
10:00 +23°C° 0 mm 4 mps 747 mmHg 55%
11:00 +25°C° 0 mm 4 mps 747 mmHg 52%
12:00 +26°C° 0 mm 4 mps 746 mmHg 49%
13:00 +27°C° 0 mm 4 mps 746 mmHg 46%
14:00 +26°C° 0 mm 4 mps 746 mmHg 47%
15:00 +26°C° 0 mm 3 mps 746 mmHg 48%
16:00 +26°C° 0 mm 3 mps 746 mmHg 49%
17:00 +25°C° 0 mm 3 mps 746 mmHg 53%
18:00 +24°C° 0 mm 2 mps 747 mmHg 57%
19:00 +23°C° 0 mm 2 mps 747 mmHg 60%
20:00 +21°C° 0 mm 2 mps 747 mmHg 63%
21:00 +20°C° 0 mm 3 mps 746 mmHg 65%
22:00 +19°C° 0 mm 3 mps 746 mmHg 67%
23:00 +19°C° 0 mm 3 mps 746 mmHg 68%

Day after tomorrow, 8 August, Sunday

Time Temperature Precipitation Wind Pressure Humidity
00:00 +18°C° 0 mm 4 mps 746 mmHg 70%
01:00 +18°C° 0 mm 4 mps 746 mmHg 71%
02:00 +18°C° 0 mm 4 mps 745 mmHg 71%
03:00 +19°C° 0 mm 5 mps 744 mmHg 70%
04:00 +19°C° 0 mm 5 mps 744 mmHg 69%
05:00 +20°C° 0 mm 5 mps 744 mmHg 68%
06:00 +20°C° 0 mm 5 mps 744 mmHg 67%
07:00 +21°C° 0 mm 5 mps 744 mmHg 65%
08:00 +21°C° 0 mm 6 mps 745 mmHg 69%
09:00 +20°C° 0 mm 8 mps 745 mmHg 72%
10:00 +19°C° 0 mm 9 mps 746 mmHg 75%
11:00 +21°C° 0 mm 9 mps 747 mmHg 68%
12:00 +22°C° 0 mm 8 mps 748 mmHg 62%
13:00 +23°C° 0 mm 7 mps 748 mmHg 55%
14:00 +24°C° 0 mm 7 mps 749 mmHg 51%
15:00 +26°C° 0 mm 7 mps 749 mmHg 47%
16:00 +27°C° 0 mm 6 mps 749 mmHg 43%
17:00 +25°C° 0 mm 5 mps 750 mmHg 46%
18:00 +23°C° 0 mm 4 mps 750 mmHg 49%
19:00 +22°C° 0 mm 3 mps 750 mmHg 53%
20:00 +21°C° 0 mm 3 mps 751 mmHg 55%
21:00 +20°C° 0 mm 3 mps 751 mmHg 57%
22:00 +19°C° 0 mm 3 mps 752 mmHg 59%
23:00 +19°C° 0.2 mm 3 mps 752 mmHg 66%

9 August, Monday

Time Temperature Precipitation Wind Pressure Humidity
00:00 +18°C° 0.2 mm 3 mps 753 mmHg 73%
01:00 +17°C° 0.2 mm 3 mps 753 mmHg 80%
02:00 +17°C° 0 mm 3 mps 753 mmHg 82%
03:00 +16°C° 0 mm 3 mps 753 mmHg 84%
04:00 +16°C° 0 mm 3 mps 753 mmHg 86%
05:00 +16°C° 0 mm 3 mps 754 mmHg 83%
06:00 +17°C° 0 mm 3 mps 754 mmHg 79%
07:00 +18°C° 0 mm 3 mps 754 mmHg 76%
08:00 +19°C° 0 mm 3 mps 755 mmHg 69%
09:00 +21°C° 0 mm 3 mps 755 mmHg 62%
10:00 +22°C° 0 mm 3 mps 755 mmHg 54%
11:00 +23°C° 0 mm 4 mps 755 mmHg 50%
12:00 +25°C° 0 mm 4 mps 755 mmHg 46%
13:00 +25°C° 0 mm 4 mps 755 mmHg 43%
14:00 +25°C° 0 mm 4 mps 755 mmHg 42%
15:00 +26°C° 0 mm 4 mps 755 mmHg 41%
16:00 +26°C° 0 mm 4 mps 754 mmHg 39%
17:00 +24°C° 0 mm 3 mps 754 mmHg 43%
18:00 +23°C° 0 mm 2 mps 755 mmHg 47%
19:00 +22°C° 0 mm 1 mps 755 mmHg 51%
20:00 +20°C° 0 mm 2 mps 755 mmHg 52%
21:00 +20°C° 0 mm 2 mps 755 mmHg 54%
22:00 +19°C° 0 mm 2 mps 755 mmHg 55%
23:00 +18°C° 0 mm 2 mps 755 mmHg 57%

10 August, Tuesday

Time Temperature Precipitation Wind Pressure Humidity
00:00 +18°C° 0 mm 2 mps 755 mmHg 59%
01:00 +17°C° 0 mm 2 mps 755 mmHg 61%
02:00 +17°C° 0 mm 2 mps 755 mmHg 63%
03:00 +17°C° 0 mm 2 mps 755 mmHg 65%
04:00 +17°C° 0 mm 2 mps 754 mmHg 67%
05:00 +17°C° 0 mm 2 mps 755 mmHg 66%
06:00 +18°C° 0 mm 2 mps 755 mmHg 66%
07:00 +19°C° 0 mm 2 mps 755 mmHg 65%
08:00 +20°C° 0 mm 3 mps 755 mmHg 60%
09:00 +22°C° 0 mm 3 mps 755 mmHg 55%
10:00 +23°C° 0 mm 4 mps 755 mmHg 50%
11:00 +23°C° 0 mm 4 mps 754 mmHg 49%
12:00 +23°C° 0 mm 4 mps 754 mmHg 48%
13:00 +23°C° 0 mm 4 mps 754 mmHg 47%
14:00 +24°C° 0 mm 3 mps 754 mmHg 47%
15:00 +24°C° 0 mm 3 mps 754 mmHg 48%
16:00 +24°C° 0 mm 3 mps 753 mmHg 48%
17:00 +23°C° 0.2 mm 2 mps 753 mmHg 55%
18:00 +20°C° 0.2 mm 2 mps 753 mmHg 63%
19:00 +19°C° 0.2 mm 2 mps 753 mmHg 70%
20:00 +18°C° 0.2 mm 2 mps 753 mmHg 72%
21:00 +18°C° 0.2 mm 2 mps 754 mmHg 73%
22:00 +17°C° 0.2 mm 2 mps 754 mmHg 75%
23:00 +17°C° 0.1 mm 2 mps 754 mmHg 77%

11 August, Wednesday

Time Temperature Precipitation Wind Pressure Humidity
00:00 +16°C° 0.1 mm 2 mps 754 mmHg 80%
01:00 +15°C° 0.1 mm 2 mps 754 mmHg 83%
02:00 +15°C° 0 mm 2 mps 754 mmHg 86%
03:00 +14°C° 0 mm 2 mps 754 mmHg 88%
04:00 +13°C° 0 mm 3 mps 754 mmHg 91%
05:00 +14°C° 0 mm 3 mps 754 mmHg 86%
06:00 +16°C° 0 mm 3 mps 754 mmHg 82%
07:00 +17°C° 0 mm 3 mps 754 mmHg 78%
08:00 +19°C° 0 mm 3 mps 754 mmHg 71%
09:00 +20°C° 0 mm 3 mps 754 mmHg 63%
10:00 +22°C° 0 mm 3 mps 755 mmHg 56%
11:00 +24°C° 0.1 mm 3 mps 754 mmHg 51%
12:00 +25°C° 0.1 mm 3 mps 754 mmHg 47%
13:00 +25°C° 0.1 mm 3 mps 754 mmHg 42%
14:00 +25°C° 0 mm 3 mps 754 mmHg 43%
15:00 +25°C° 0 mm 3 mps 754 mmHg 44%
16:00 +25°C° 0 mm 3 mps 754 mmHg 45%
17:00 +24°C° 0 mm 3 mps 754 mmHg 48%
18:00 +23°C° 0 mm 2 mps 754 mmHg 52%
19:00 +21°C° 0 mm 2 mps 754 mmHg 55%
20:00 +21°C° 0 mm 2 mps 754 mmHg 56%
21:00 +20°C° 0 mm 2 mps 754 mmHg 57%
22:00 +20°C° 0 mm 2 mps 755 mmHg 58%
23:00 +19°C° 0 mm 2 mps 754 mmHg 60%
Show more